Location: Borovka
(49.7741°N, 14.5280°E)
Time: 08:02:45
(UTC+00:00)

Cosmos 2084 Rocket - Pass Details

Date: 17 November 2025
Orbit: 548 x 566 km, 62.8° (Epoch: 12 December)

Event Time Altitude Azimuth Distance (km) Brightness Sun altitude
Rises 16:36:42 0° 241° (WSW) 2,738 8.6 -12.9°
Reaches altitude 10° 16:38:59 10° 248° (WSW) 1,849 7.4 -13.3°
Maximum altitude 16:42:59 45° 322° (NW) 773 4.2 -13.9°
Enters shadow 16:46:17 15° 32° (NNE) 1,583 5.2 -14.4°
